• In Romania
  • List of Countries
  • For 7 days
  • Water Temperature
  • Satellite Maps
  • Weather Map
  • Weather Widgets
  • user-avatar
    Login

    Hourly Weather Valencia

    Today, 15 October, Monday

    Time Temperature Precipitation Wind Pressure Humidity
    00:00 +23°C° 0.1 mm 1 mps 718 mmHg 92%
    01:00 +23°C° 0.1 mm 1 mps 718 mmHg 92%
    02:00 +23°C° 0 mm 1 mps 718 mmHg 91%
    03:00 +23°C° 0 mm 1 mps 718 mmHg 90%
    04:00 +23°C° 0 mm 1 mps 718 mmHg 89%
    05:00 +24°C° 0 mm 1 mps 718 mmHg 85%
    06:00 +25°C° 0 mm 1 mps 718 mmHg 82%
    07:00 +26°C° 0 mm 1 mps 718 mmHg 78%
    08:00 +28°C° 0 mm 1 mps 719 mmHg 69%
    09:00 +30°C° 0 mm 1 mps 719 mmHg 60%
    10:00 +32°C° 0 mm 2 mps 719 mmHg 51%
    11:00 +32°C° 0 mm 2 mps 719 mmHg 51%
    12:00 +33°C° 0 mm 3 mps 718 mmHg 51%
    13:00 +34°C° 0 mm 3 mps 717 mmHg 51%
    14:00 +33°C° 0 mm 3 mps 717 mmHg 55%
    15:00 +31°C° 0 mm 3 mps 716 mmHg 60%
    16:00 +30°C° 0 mm 2 mps 716 mmHg 65%
    17:00 +28°C° 0 mm 2 mps 716 mmHg 73%
    18:00 +27°C° 0 mm 2 mps 716 mmHg 81%
    19:00 +25°C° 0 mm 1 mps 717 mmHg 89%
    20:00 +25°C° 0 mm 1 mps 717 mmHg 90%
    21:00 +24°C° 0 mm 1 mps 717 mmHg 91%
    22:00 +24°C° 0 mm 1 mps 718 mmHg 92%
    23:00 +24°C° 0 mm 1 mps 717 mmHg 93%

    Tomorrow, 16 October, Tuesday

    Time Temperature Precipitation Wind Pressure Humidity
    00:00 +24°C° 0 mm 1 mps 717 mmHg 94%
    01:00 +24°C° 0 mm 1 mps 717 mmHg 94%
    02:00 +24°C° 0 mm 1 mps 717 mmHg 94%
    03:00 +23°C° 0 mm 1 mps 716 mmHg 94%
    04:00 +23°C° 0 mm 1 mps 716 mmHg 94%
    05:00 +24°C° 0 mm 1 mps 717 mmHg 90%
    06:00 +25°C° 0 mm 1 mps 717 mmHg 86%
    07:00 +26°C° 0 mm 1 mps 718 mmHg 81%
    08:00 +29°C° 0 mm 1 mps 718 mmHg 70%
    09:00 +31°C° 0 mm 1 mps 718 mmHg 59%
    10:00 +35°C° 0 mm 2 mps 719 mmHg 48%
    11:00 +35°C° 0.1 mm 2 mps 718 mmHg 49%
    12:00 +35°C° 0.1 mm 2 mps 717 mmHg 50%
    13:00 +34°C° 0.1 mm 2 mps 716 mmHg 51%
    14:00 +32°C° 0.1 mm 2 mps 716 mmHg 59%
    15:00 +31°C° 0.1 mm 2 mps 715 mmHg 66%
    16:00 +29°C° 0.1 mm 2 mps 715 mmHg 74%
    17:00 +28°C° 0.3 mm 2 mps 715 mmHg 80%
    18:00 +26°C° 0.3 mm 2 mps 715 mmHg 86%
    19:00 +25°C° 0.3 mm 2 mps 716 mmHg 92%
    20:00 +25°C° 0 mm 2 mps 716 mmHg 93%
    21:00 +25°C° 0 mm 2 mps 716 mmHg 93%
    22:00 +24°C° 0 mm 2 mps 717 mmHg 94%
    23:00 +24°C° 0 mm 1 mps 716 mmHg 94%

    Day after tomorrow, 17 October, Wednesday

    Time Temperature Precipitation Wind Pressure Humidity
    00:00 +24°C° 0 mm 1 mps 716 mmHg 94%
    01:00 +24°C° 0 mm 1 mps 716 mmHg 94%
    02:00 +24°C° 0 mm 1 mps 715 mmHg 94%
    03:00 +23°C° 0 mm 1 mps 715 mmHg 94%
    04:00 +23°C° 0 mm 1 mps 715 mmHg 93%
    05:00 +24°C° 0 mm 1 mps 716 mmHg 90%
    06:00 +25°C° 0 mm 1 mps 716 mmHg 87%
    07:00 +26°C° 0 mm 1 mps 717 mmHg 83%
    08:00 +28°C° 0 mm 1 mps 717 mmHg 74%
    09:00 +31°C° 0 mm 1 mps 717 mmHg 64%
    10:00 +33°C° 0 mm 1 mps 718 mmHg 54%
    11:00 +33°C° 0.1 mm 1 mps 717 mmHg 57%
    12:00 +32°C° 0.1 mm 1 mps 716 mmHg 61%
    13:00 +32°C° 0.1 mm 1 mps 715 mmHg 64%
    14:00 +30°C° 1.9 mm 1 mps 715 mmHg 72%
    15:00 +29°C° 1.9 mm 1 mps 714 mmHg 79%
    16:00 +27°C° 1.9 mm 1 mps 714 mmHg 87%
    17:00 +27°C° 0.6 mm 2 mps 715 mmHg 89%
    18:00 +26°C° 0.6 mm 2 mps 715 mmHg 91%
    19:00 +25°C° 0.6 mm 2 mps 716 mmHg 93%
    20:00 +25°C° 0.1 mm 2 mps 716 mmHg 94%
    21:00 +25°C° 0.1 mm 2 mps 716 mmHg 94%
    22:00 +25°C° 0.1 mm 2 mps 716 mmHg 94%
    23:00 +25°C° 0.1 mm 2 mps 716 mmHg 94%

    18 October, Thursday

    Time Temperature Precipitation Wind Pressure Humidity
    00:00 +25°C° 0.1 mm 2 mps 715 mmHg 94%
    01:00 +25°C° 0.1 mm 1 mps 715 mmHg 95%
    02:00 +24°C° 0 mm 1 mps 715 mmHg 95%
    03:00 +24°C° 0 mm 1 mps 715 mmHg 95%
    04:00 +24°C° 0 mm 1 mps 715 mmHg 95%
    05:00 +25°C° 0 mm 1 mps 715 mmHg 91%
    06:00 +26°C° 0 mm 1 mps 716 mmHg 87%
    07:00 +25°C° 0 mm 0 mps 716 mmHg 84%
    08:00 +28°C° 0.3 mm 1 mps 717 mmHg 77%
    09:00 +30°C° 0.3 mm 1 mps 717 mmHg 70%
    10:00 +31°C° 0.3 mm 2 mps 717 mmHg 64%
    11:00 +31°C° 0.9 mm 2 mps 716 mmHg 65%
    12:00 +32°C° 0.9 mm 2 mps 715 mmHg 65%
    13:00 +32°C° 0.9 mm 2 mps 714 mmHg 66%
    14:00 +31°C° 1 mm 2 mps 714 mmHg 71%
    15:00 +30°C° 1 mm 2 mps 714 mmHg 75%
    16:00 +29°C° 1 mm 1 mps 714 mmHg 80%
    17:00 +28°C° 0.9 mm 1 mps 714 mmHg 83%
    18:00 +27°C° 0.9 mm 1 mps 715 mmHg 87%
    19:00 +25°C° 0.9 mm 1 mps 715 mmHg 90%
    20:00 +25°C° 0.5 mm 1 mps 715 mmHg 91%
    21:00 +25°C° 0.5 mm 1 mps 716 mmHg 91%
    22:00 +25°C° 0.5 mm 1 mps 716 mmHg 92%
    23:00 +24°C° 0.5 mm 1 mps 716 mmHg 92%

    19 October, Friday

    Time Temperature Precipitation Wind Pressure Humidity
    00:00 +24°C° 0.5 mm 1 mps 715 mmHg 93%
    01:00 +24°C° 0.5 mm 1 mps 715 mmHg 94%
    02:00 +24°C° 0.7 mm 1 mps 715 mmHg 94%
    03:00 +23°C° 0.7 mm 1 mps 715 mmHg 94%
    04:00 +23°C° 0.7 mm 1 mps 715 mmHg 94%
    05:00 +24°C° 0.2 mm 1 mps 716 mmHg 90%
    06:00 +25°C° 0.2 mm 1 mps 716 mmHg 87%
    07:00 +26°C° 0.2 mm 1 mps 717 mmHg 83%
    08:00 +28°C° 0.2 mm 1 mps 717 mmHg 78%
    09:00 +29°C° 0.2 mm 1 mps 717 mmHg 72%
    10:00 +31°C° 0.2 mm 2 mps 717 mmHg 66%
    11:00 +30°C° 0.8 mm 2 mps 716 mmHg 70%
    12:00 +30°C° 0.8 mm 2 mps 716 mmHg 73%
    13:00 +30°C° 0.8 mm 2 mps 715 mmHg 77%
    14:00 +29°C° 1 mm 2 mps 715 mmHg 80%
    15:00 +28°C° 1 mm 1 mps 714 mmHg 83%
    16:00 +27°C° 1 mm 1 mps 714 mmHg 86%
    17:00 +27°C° 1.4 mm 1 mps 715 mmHg 88%
    18:00 +26°C° 1.4 mm 1 mps 715 mmHg 91%
    19:00 +25°C° 1.4 mm 1 mps 716 mmHg 93%
    20:00 +24°C° 0.4 mm 1 mps 716 mmHg 93%
    21:00 +24°C° 0.4 mm 1 mps 716 mmHg 93%
    22:00 +22°C° 0.4 mm 0 mps 716 mmHg 93%
    23:00 +22°C° 0.4 mm 0 mps 715 mmHg 93%

    20 October, Saturday

    Time Temperature Precipitation Wind Pressure Humidity
    00:00 +22°C° 0.4 mm 0 mps 715 mmHg 93%
    01:00 +22°C° 0.4 mm 0 mps 715 mmHg 93%
    02:00 +24°C° 0.4 mm 1 mps 715 mmHg 92%
    03:00 +24°C° 0.4 mm 1 mps 715 mmHg 92%
    04:00 +23°C° 0.4 mm 1 mps 715 mmHg 92%
    05:00 +24°C° 0.2 mm 1 mps 715 mmHg 90%
    06:00 +25°C° 0.2 mm 1 mps 716 mmHg 87%
    07:00 +26°C° 0.2 mm 1 mps 717 mmHg 85%
    08:00 +27°C° 0.2 mm 1 mps 717 mmHg 79%
    09:00 +29°C° 0.2 mm 1 mps 717 mmHg 72%
    10:00 +30°C° 0.2 mm 1 mps 717 mmHg 66%
    11:00 +30°C° 0.9 mm 1 mps 716 mmHg 70%
    12:00 +30°C° 0.9 mm 1 mps 715 mmHg 73%
    13:00 +29°C° 0.9 mm 1 mps 714 mmHg 77%
    14:00 +29°C° 1.4 mm 1 mps 714 mmHg 81%
    15:00 +28°C° 1.4 mm 1 mps 714 mmHg 84%
    16:00 +27°C° 1.4 mm 1 mps 714 mmHg 88%
    17:00 +26°C° 0.5 mm 1 mps 714 mmHg 90%
    18:00 +25°C° 0.5 mm 1 mps 715 mmHg 92%
    19:00 +24°C° 0.5 mm 1 mps 715 mmHg 94%
    20:00 +24°C° 0.4 mm 1 mps 715 mmHg 94%
    21:00 +24°C° 0.4 mm 1 mps 716 mmHg 94%
    22:00 +24°C° 0.4 mm 1 mps 716 mmHg 94%
    23:00 +24°C° 0.3 mm 1 mps 715 mmHg 94%
    Show more